Regional Weather Roundup
Issued by NWS Albany, NY

Home | Current Version | Previous Version | Graphics & Text | Print | Product List | Glossary Off
Versions: 1 2 3 4 5 6 7 8 9 10 11 12 13 14 15 16 17 18 19 20 21 22 23 24 25 26 27 28 29 30 31 32 33 34 35 36 37 38 39 40 41 42 43 44 45 46 47 48 49 50

000
ASUS41 KALY 212210
RWRALY

NEW YORK STATE HOURLY WEATHER ROUNDUP
NATIONAL WEATHER SERVICE ALBANY NY
600 PM EDT SUN SEP 21 2014

NOTE: "FAIR" INDICATES FEW OR NO CLOUDS BELOW 12,000 FEET WITH NO
SIGNIFICANT WEATHER AND/OR NO OBSTRUCTIONS TO VISIBILITY.

NYZ032-033-038>043-046>054-057>066-NYZ062>081-212300-
EAST


CITY           SKY/WX    TMP DP  RH WIND       PRES   REMARKS
ALBANY         MOCLDY    78  64  61 S13G20    29.59F
GLENS FALLS    MOCLDY    77  63  61 S10       29.58F
POUGHKEEPSIE   CLOUDY    75  66  73 SE5       29.60F
NEWBURGH       MOCLDY    77  68  73 SE14      29.64F
MONTGOMERY     MOCLDY    77  65  66 S8        29.61F
WHITE PLAINS   CLOUDY    72  68  87 SE3       29.63F
ISLIP          CLOUDY    73  68  84 S3        29.62F
NEW YORK CITY  CLOUDY    77  66  68 E6        29.62F
CENTRAL PARK   CLOUDY    74  66  76 CALM      29.65F
$$

NYZ005>009-017-018-044>046-055-056-212300-
CENTRAL


CITY           SKY/WX    TMP DP  RH WIND       PRES   REMARKS
FULTON         MOSUNNY   69  62  78 CALM      29.57R
SYRACUSE       PTSUNNY   64  59  83 SE7       29.59R
ROME           LGT RAIN  63  59  87 NW13      29.63R FOG
ELMIRA         CLOUDY    66  63  90 SW5       29.62R
BINGHAMTON     MOSUNNY   73  61  65 SW14      29.62S
MONTICELLO     MOSUNNY   75  55  50 S12       29.66F
$$

NYZ026>034-041>043-212300-
NORTH


CITY           SKY/WX    TMP DP  RH WIND       PRES   REMARKS
WATERTOWN      PTSUNNY   73  60  63 S6        29.55R
FORT DRUM      NOT AVBL
MASSENA        PTCLDY    74  64  71 S13G21    29.52R
SARANAC LAKE   LGT RAIN  65  60  84 SW6       29.60R
PLATTSBURGH    MOCLDY    73  60  63 SE8       29.54F
$$

NYZ001>004-010>016-019>021-212300-
WEST


CITY           SKY/WX    TMP DP  RH WIND       PRES   REMARKS
NIAGARA FALLS  MOSUNNY   68  53  58 SW22G30   29.60R
BUFFALO        MOSUNNY   68  54  60 W21G35    29.61S
DUNKIRK        SUNNY     67  54  63 W18G30    29.66R
JAMESTOWN      CLOUDY    63  52  67 W16G24    29.70R
WELLSVILLE     MOSUNNY   66  58  75 NW10      29.68R
ROCHESTER      MOSUNNY   71  51  49 W18G31    29.59R
PENN YAN       MOSUNNY   70  59  68 W9G16     29.61R
$$

             KEY
       WCI = WIND CHILL INDEX
       VSB = VISIBILITY
       HX  = HEAT INDEX
$$



USA.gov is the U.S. government's official web portal to all federal, state and local government web resources and services.